Time,TemperatureF,DewpointF,PressureIn,WindDirection,WindDirectionDegrees,WindSpeedMPH,WindSpeedGustMPH,Humidity,HourlyPrecipIn,Conditions,Clouds,dailyrainin,SoftwareType,DateUTC
2013-08-25 00:00:00,61.1,59.4,29.87,SE,135,1.0,-999.0,94,0.00,,,0.00,Wunderground v.1.15,2013-08-25 07:00:00,
2013-08-25 00:05:00,61.1,59.4,29.87,SE,135,1.0,-999.0,94,0.00,,,0.00,Wunderground v.1.15,2013-08-25 07:05:00,
2013-08-25 00:10:00,61.0,59.3,29.87,SSE,158,1.0,-999.0,94,0.00,,,0.00,Wunderground v.1.15,2013-08-25 07:10:00,
2013-08-25 00:15:00,61.0,59.3,29.87,SE,135,0.0,-999.0,94,0.00,,,0.00,Wunderground v.1.15,2013-08-25 07:15:00,
2013-08-25 00:20:00,61.0,59.3,29.87,SE,135,1.0,-999.0,94,0.00,,,0.00,Wunderground v.1.15,2013-08-25 07:20:00,
2013-08-25 00:25:00,61.0,59.3,29.87,South,180,0.0,-999.0,94,0.00,,,0.00,Wunderground v.1.15,2013-08-25 07:25:00,
2013-08-25 00:30:00,61.1,59.4,29.88,SSW,203,1.0,-999.0,94,0.00,,,0.00,Wunderground v.1.15,2013-08-25 07:30:00,
2013-08-25 00:35:00,61.1,59.4,29.88,South,180,0.0,-999.0,94,0.00,,,0.00,Wunderground v.1.15,2013-08-25 07:35:00,
2013-08-25 00:40:00,61.1,59.4,29.88,WSW,248,1.0,-999.0,94,0.00,,,0.00,Wunderground v.1.15,2013-08-25 07:40:00,
2013-08-25 00:45:00,61.1,59.7,29.88,South,180,1.0,-999.0,95,0.00,,,0.00,Wunderground v.1.15,2013-08-25 07:45:00,
2013-08-25 00:50:00,61.1,59.7,29.88,South,180,1.0,-999.0,95,0.00,,,0.00,Wunderground v.1.15,2013-08-25 07:50:00,
2013-08-25 00:55:00,61.1,59.7,29.88,South,180,0.0,-999.0,95,0.00,,,0.00,Wunderground v.1.15,2013-08-25 07:55:00,
2013-08-25 01:00:00,61.1,59.7,29.88,South,180,0.0,-999.0,95,0.00,,,0.00,Wunderground v.1.15,2013-08-25 08:00:00,
2013-08-25 01:05:00,61.2,59.8,29.87,South,180,0.0,-999.0,95,0.00,,,0.00,Wunderground v.1.15,2013-08-25 08:05:00,
2013-08-25 01:10:00,61.3,59.9,29.88,SSW,203,0.0,-999.0,95,0.00,,,0.00,Wunderground v.1.15,2013-08-25 08:10:00,
2013-08-25 01:15:00,61.3,59.9,29.87,SSW,203,0.0,-999.0,95,0.00,,,0.00,Wunderground v.1.15,2013-08-25 08:15:00,
2013-08-25 01:20:00,61.4,60.0,29.87,SSW,203,1.0,-999.0,95,0.00,,,0.00,Wunderground v.1.15,2013-08-25 08:20:00,
2013-08-25 01:25:00,61.4,60.0,29.88,SSW,203,1.0,-999.0,95,0.00,,,0.00,Wunderground v.1.15,2013-08-25 08:25:00,
2013-08-25 01:30:00,61.4,60.0,29.88,WSW,248,0.0,-999.0,95,0.00,,,0.00,Wunderground v.1.15,2013-08-25 08:30:00,
2013-08-25 01:35:00,61.5,60.1,29.88,WSW,248,0.0,-999.0,95,0.00,,,0.00,Wunderground v.1.15,2013-08-25 08:35:00,
2013-08-25 01:40:00,61.6,60.2,29.88,South,180,1.0,-999.0,95,0.00,,,0.00,Wunderground v.1.15,2013-08-25 08:40:00,
2013-08-25 01:45:00,61.6,60.2,29.88,South,180,1.0,-999.0,95,0.00,,,0.00,Wunderground v.1.15,2013-08-25 08:45:00,
2013-08-25 01:50:00,61.7,60.3,29.88,South,180,0.0,-999.0,95,0.00,,,0.00,Wunderground v.1.15,2013-08-25 08:50:00,
2013-08-25 01:55:00,61.7,60.3,29.88,SE,135,0.0,-999.0,95,0.00,,,0.00,Wunderground v.1.15,2013-08-25 08:55:00,
2013-08-25 02:00:00,61.7,60.3,29.88,SE,135,1.0,-999.0,95,0.00,,,0.00,Wunderground v.1.15,2013-08-25 09:00:00,
2013-08-25 02:05:00,61.7,60.3,29.88,SE,135,1.0,-999.0,95,0.00,,,0.00,Wunderground v.1.15,2013-08-25 09:05:00,
2013-08-25 02:10:00,61.7,60.3,29.88,East,90,1.0,-999.0,95,0.00,,,0.00,Wunderground v.1.15,2013-08-25 09:10:00,
2013-08-25 02:15:00,61.7,60.3,29.88,ESE,113,1.0,-999.0,95,0.00,,,0.00,Wunderground v.1.15,2013-08-25 09:15:00,
2013-08-25 02:20:00,61.7,60.3,29.88,SSE,158,2.0,-999.0,95,0.00,,,0.00,Wunderground v.1.15,2013-08-25 09:20:00,
2013-08-25 02:25:00,61.8,60.4,29.88,SSE,158,3.0,-999.0,95,0.00,,,0.00,Wunderground v.1.15,2013-08-25 09:25:00,
2013-08-25 02:30:00,62.0,60.6,29.88,WSW,248,4.0,-999.0,95,0.00,,,0.00,Wunderground v.1.15,2013-08-25 09:30:00,
2013-08-25 02:35:00,62.0,60.6,29.88,SW,225,3.0,-999.0,95,0.00,,,0.00,Wunderground v.1.15,2013-08-25 09:35:00,
2013-08-25 02:40:00,62.0,60.6,29.88,SW,225,3.0,-999.0,95,0.00,,,0.00,Wunderground v.1.15,2013-08-25 09:40:00,
2013-08-25 02:45:00,62.0,60.6,29.88,WSW,248,3.0,-999.0,95,0.00,,,0.00,Wunderground v.1.15,2013-08-25 09:45:00,
2013-08-25 02:50:00,62.0,60.6,29.88,West,270,3.0,-999.0,95,0.00,,,0.00,Wunderground v.1.15,2013-08-25 09:50:00,
2013-08-25 02:55:00,62.0,60.6,29.88,SW,225,2.0,-999.0,95,0.00,,,0.00,Wunderground v.1.15,2013-08-25 09:55:00,
2013-08-25 03:00:00,62.0,60.6,29.88,WSW,248,2.0,-999.0,95,0.00,,,0.00,Wunderground v.1.15,2013-08-25 10:00:00,
2013-08-25 03:05:00,61.9,60.5,29.88,WSW,248,2.0,-999.0,95,0.00,,,0.00,Wunderground v.1.15,2013-08-25 10:05:00,
2013-08-25 03:10:00,61.9,60.5,29.88,WSW,248,2.0,-999.0,95,0.00,,,0.00,Wunderground v.1.15,2013-08-25 10:10:00,
2013-08-25 03:15:00,61.9,60.5,29.88,West,270,2.0,-999.0,95,0.00,,,0.00,Wunderground v.1.15,2013-08-25 10:15:00,
2013-08-25 03:20:00,61.9,60.5,29.89,SW,225,3.0,-999.0,95,0.00,,,0.00,Wunderground v.1.15,2013-08-25 10:20:00,
2013-08-25 03:25:00,62.0,60.6,29.89,SW,225,3.0,-999.0,95,0.00,,,0.00,Wunderground v.1.15,2013-08-25 10:25:00,
2013-08-25 03:30:00,62.0,60.6,29.89,SW,225,2.0,-999.0,95,0.00,,,0.00,Wunderground v.1.15,2013-08-25 10:30:00,
2013-08-25 03:35:00,61.9,60.5,29.89,SW,225,2.0,-999.0,95,0.00,,,0.00,Wunderground v.1.15,2013-08-25 10:35:00,
2013-08-25 03:40:00,62.0,60.6,29.89,WSW,248,3.0,-999.0,95,0.00,,,0.00,Wunderground v.1.15,2013-08-25 10:40:00,
2013-08-25 03:45:00,62.0,60.6,29.89,SW,225,1.0,-999.0,95,0.00,,,0.00,Wunderground v.1.15,2013-08-25 10:45:00,
2013-08-25 03:50:00,62.0,60.6,29.89,WSW,248,2.0,-999.0,95,0.00,,,0.00,Wunderground v.1.15,2013-08-25 10:50:00,
2013-08-25 03:55:00,62.0,60.6,29.89,West,270,1.0,-999.0,95,0.00,,,0.00,Wunderground v.1.15,2013-08-25 10:55:00,
2013-08-25 04:00:00,62.0,60.8,29.89,West,270,1.0,-999.0,96,0.00,,,0.00,Wunderground v.1.15,2013-08-25 11:00:00,
2013-08-25 04:05:00,61.9,60.7,29.89,SW,225,2.0,-999.0,96,0.00,,,0.00,Wunderground v.1.15,2013-08-25 11:05:00,
2013-08-25 04:10:00,61.9,60.7,29.89,South,180,1.0,-999.0,96,0.00,,,0.00,Wunderground v.1.15,2013-08-25 11:10:00,
2013-08-25 04:15:00,61.8,60.6,29.89,South,180,1.0,-999.0,96,0.00,,,0.00,Wunderground v.1.15,2013-08-25 11:15:00,
2013-08-25 04:20:00,61.8,60.6,29.89,SW,225,1.0,-999.0,96,0.00,,,0.00,Wunderground v.1.15,2013-08-25 11:20:00,
2013-08-25 04:25:00,61.8,60.6,29.88,South,180,1.0,-999.0,96,0.00,,,0.00,Wunderground v.1.15,2013-08-25 11:25:00,
2013-08-25 04:30:00,61.9,60.7,29.88,South,180,1.0,-999.0,96,0.00,,,0.00,Wunderground v.1.15,2013-08-25 11:30:00,
2013-08-25 04:35:00,61.8,60.6,29.88,South,180,1.0,-999.0,96,0.00,,,0.00,Wunderground v.1.15,2013-08-25 11:35:00,
2013-08-25 04:40:00,61.9,60.7,29.88,WSW,248,0.0,-999.0,96,0.00,,,0.00,Wunderground v.1.15,2013-08-25 11:40:00,
2013-08-25 04:45:00,61.9,60.7,29.88,WSW,248,2.0,-999.0,96,0.00,,,0.00,Wunderground v.1.15,2013-08-25 11:45:00,
2013-08-25 04:50:00,61.8,60.6,29.88,WSW,248,1.0,-999.0,96,0.00,,,0.00,Wunderground v.1.15,2013-08-25 11:50:00,
2013-08-25 04:55:00,61.8,60.6,29.88,WSW,248,2.0,-999.0,96,0.00,,,0.00,Wunderground v.1.15,2013-08-25 11:55:00,
2013-08-25 05:00:00,61.9,60.7,29.89,SW,225,1.0,-999.0,96,0.00,,,0.00,Wunderground v.1.15,2013-08-25 12:00:00,
2013-08-25 05:05:00,61.9,60.7,29.89,SW,225,1.0,-999.0,96,0.00,,,0.00,Wunderground v.1.15,2013-08-25 12:05:00,
2013-08-25 05:10:00,61.9,60.7,29.88,SW,225,1.0,-999.0,96,0.00,,,0.00,Wunderground v.1.15,2013-08-25 12:10:00,
2013-08-25 05:15:00,61.9,60.7,29.89,SW,225,1.0,-999.0,96,0.00,,,0.00,Wunderground v.1.15,2013-08-25 12:15:00,
2013-08-25 05:30:00,61.8,60.6,29.89,WSW,243,0.0,0.0,96,0.00,,,0.00,Wunderground v.1.15,2013-08-25 12:30:00,
2013-08-25 05:40:00,61.9,60.7,29.88,WSW,243,0.0,0.0,96,0.00,,,0.00,Wunderground v.1.15,2013-08-25 12:40:00,
2013-08-25 05:50:00,61.9,60.7,29.88,WSW,243,0.0,0.0,96,0.00,,,0.00,Wunderground v.1.15,2013-08-25 12:50:00,
2013-08-25 06:00:00,61.8,60.6,29.88,WSW,243,0.0,0.0,96,0.00,,,0.00,Wunderground v.1.15,2013-08-25 13:00:00,
2013-08-25 06:10:00,61.8,60.6,29.88,WSW,243,0.0,0.0,96,0.00,,,0.00,Wunderground v.1.15,2013-08-25 13:10:00,
2013-08-25 06:20:00,61.8,60.9,29.89,WSW,243,0.0,0.0,97,0.00,,,0.00,Wunderground v.1.15,2013-08-25 13:20:00,
2013-08-25 06:30:00,61.8,60.9,29.89,WSW,243,0.0,3.0,97,0.00,,,0.00,Wunderground v.1.15,2013-08-25 13:30:00,
2013-08-25 06:40:00,61.8,60.9,29.89,SW,221,0.0,3.0,97,0.00,,,0.00,Wunderground v.1.15,2013-08-25 13:40:00,
2013-08-25 06:50:00,61.7,60.5,29.90,South,186,1.0,3.0,96,0.00,,,0.00,Wunderground v.1.15,2013-08-25 13:50:00,
2013-08-25 06:55:00,61.7,60.5,29.90,WSW,258,0.0,3.0,96,0.00,,,0.00,Wunderground v.1.15,2013-08-25 13:55:00,
2013-08-25 07:00:00,61.7,60.5,29.90,SW,223,2.0,3.0,96,0.00,,,0.00,Wunderground v.1.15,2013-08-25 14:00:00,
2013-08-25 07:10:00,61.5,60.3,29.90,SSW,205,1.0,1.0,96,0.00,,,0.00,Wunderground v.1.15,2013-08-25 14:10:00,
2013-08-25 07:20:00,61.5,60.3,29.90,SSW,204,0.0,3.0,96,0.00,,,0.00,Wunderground v.1.15,2013-08-25 14:20:00,
2013-08-25 07:30:00,61.6,60.4,29.90,SSW,204,0.0,3.0,96,0.00,,,0.00,Wunderground v.1.15,2013-08-25 14:30:00,
2013-08-25 07:35:00,61.7,60.5,29.90,SSW,203,0.0,3.0,96,0.00,,,0.00,Wunderground v.1.15,2013-08-25 14:35:00,
2013-08-25 07:45:00,61.8,60.6,29.90,SW,235,1.0,3.0,96,0.00,,,0.00,Wunderground v.1.15,2013-08-25 14:45:00,
2013-08-25 07:50:00,61.8,60.9,29.90,WSW,254,2.0,2.0,97,0.00,,,0.00,Wunderground v.1.15,2013-08-25 14:50:00,
2013-08-25 08:00:00,61.8,60.6,29.90,SW,220,3.0,3.0,96,0.00,,,0.00,Wunderground v.1.15,2013-08-25 15:00:00,
2013-08-25 08:05:00,61.8,60.6,29.90,SSW,207,2.0,3.0,96,0.00,,,0.00,Wunderground v.1.15,2013-08-25 15:05:00,
2013-08-25 08:15:00,62.0,60.8,29.90,SW,222,1.0,2.0,96,0.00,,,0.00,Wunderground v.1.15,2013-08-25 15:15:00,
2013-08-25 08:25:00,62.0,60.8,29.90,West,262,1.0,1.0,96,0.00,,,0.00,Wunderground v.1.15,2013-08-25 15:25:00,
2013-08-25 08:30:00,62.0,60.8,29.91,West,260,1.0,3.0,96,0.00,,,0.00,Wunderground v.1.15,2013-08-25 15:30:00,
2013-08-25 08:40:00,62.2,61.0,29.91,South,181,3.0,3.0,96,0.00,,,0.00,Wunderground v.1.15,2013-08-25 15:40:00,
2013-08-25 08:50:00,62.4,61.2,29.91,SSW,206,1.0,1.0,96,0.00,,,0.00,Wunderground v.1.15,2013-08-25 15:50:00,
2013-08-25 08:55:00,62.5,61.3,29.91,SSW,207,0.0,2.0,96,0.00,,,0.00,Wunderground v.1.15,2013-08-25 15:55:00,
2013-08-25 09:00:00,62.6,61.1,29.91,SSW,207,1.0,1.0,95,0.00,,,0.00,Wunderground v.1.15,2013-08-25 16:00:00,
2013-08-25 09:10:00,62.8,61.3,29.91,SSW,210,1.0,1.0,95,0.00,,,0.00,Wunderground v.1.15,2013-08-25 16:10:00,
2013-08-25 09:20:00,62.9,61.1,29.91,WSW,252,2.0,6.0,94,0.00,,,0.00,Wunderground v.1.15,2013-08-25 16:20:00,
2013-08-25 09:30:00,63.2,61.4,29.91,WSW,257,1.0,1.0,94,0.00,,,0.00,Wunderground v.1.15,2013-08-25 16:30:00,
2013-08-25 09:40:00,63.7,61.6,29.92,West,264,0.0,6.0,93,0.00,,,0.00,Wunderground v.1.15,2013-08-25 16:40:00,
2013-08-25 09:45:00,63.9,61.5,29.92,West,259,1.0,6.0,92,0.00,,,0.00,Wunderground v.1.15,2013-08-25 16:45:00,
2013-08-25 09:55:00,64.4,61.7,29.92,SSW,212,2.0,6.0,91,0.00,,,0.00,Wunderground v.1.15,2013-08-25 16:55:00,
2013-08-25 10:00:00,64.7,62.0,29.92,SSW,198,2.0,2.0,91,0.00,,,0.00,Wunderground v.1.15,2013-08-25 17:00:00,
2013-08-25 10:10:00,65.5,62.2,29.92,West,266,1.0,6.0,89,0.00,,,0.00,Wunderground v.1.15,2013-08-25 17:10:00,
2013-08-25 10:20:00,66.5,62.2,29.92,SW,234,2.0,2.0,86,0.00,,,0.00,Wunderground v.1.15,2013-08-25 17:20:00,
2013-08-25 10:25:00,66.7,62.4,29.92,SW,214,2.0,6.0,86,0.00,,,0.00,Wunderground v.1.15,2013-08-25 17:25:00,
2013-08-25 10:35:00,67.3,62.3,29.92,WSW,250,3.0,4.0,84,0.00,,,0.00,Wunderground v.1.15,2013-08-25 17:35:00,
2013-08-25 10:45:00,68.4,62.7,29.92,SSW,201,3.0,6.0,82,0.00,,,0.00,Wunderground v.1.15,2013-08-25 17:45:00,
2013-08-25 10:50:00,68.8,62.7,29.92,SW,221,3.0,3.0,81,0.00,,,0.00,Wunderground v.1.15,2013-08-25 17:50:00,
2013-08-25 10:55:00,69.2,63.1,29.92,SW,235,2.0,6.0,81,0.00,,,0.00,Wunderground v.1.15,2013-08-25 17:55:00,
2013-08-25 11:05:00,70.2,63.0,29.92,SSW,212,2.0,4.0,78,0.00,,,0.00,Wunderground v.1.15,2013-08-25 18:05:00,
2013-08-25 11:10:00,70.8,63.2,29.92,SW,223,3.0,6.0,77,0.00,,,0.00,Wunderground v.1.15,2013-08-25 18:10:00,
2013-08-25 11:15:00,71.0,63.4,29.92,SW,224,4.0,6.0,77,0.00,,,0.00,Wunderground v.1.15,2013-08-25 18:15:00,
2013-08-25 11:25:00,71.3,63.0,29.92,SW,236,4.0,6.0,75,0.00,,,0.00,Wunderground v.1.15,2013-08-25 18:25:00,
2013-08-25 11:35:00,72.7,63.9,29.91,SSE,164,1.0,6.0,74,0.00,,,0.00,Wunderground v.1.15,2013-08-25 18:35:00,
2013-08-25 11:40:00,73.3,63.7,29.91,SSE,160,2.0,2.0,72,0.00,,,0.00,Wunderground v.1.15,2013-08-25 18:40:00,
2013-08-25 11:45:00,73.6,63.6,29.91,West,260,3.0,3.0,71,0.00,,,0.00,Wunderground v.1.15,2013-08-25 18:45:00,
2013-08-25 11:55:00,73.5,63.5,29.91,East,82,3.0,6.0,71,0.00,,,0.00,Wunderground v.1.15,2013-08-25 18:55:00,
2013-08-25 12:00:00,74.2,64.2,29.91,SW,232,3.0,6.0,71,0.00,,,0.00,Wunderground v.1.15,2013-08-25 19:00:00,
2013-08-25 12:10:00,74.6,64.2,29.91,WSW,250,4.0,5.0,70,0.00,,,0.00,Wunderground v.1.15,2013-08-25 19:10:00,
2013-08-25 12:15:00,75.0,63.7,29.91,WSW,257,4.0,7.0,68,0.00,,,0.00,Wunderground v.1.15,2013-08-25 19:15:00,
2013-08-25 12:20:00,75.1,63.8,29.91,WSW,255,3.0,3.0,68,0.00,,,0.00,Wunderground v.1.15,2013-08-25 19:20:00,
2013-08-25 12:25:00,75.2,63.5,29.91,SW,230,3.0,6.0,67,0.00,,,0.00,Wunderground v.1.15,2013-08-25 19:25:00,
2013-08-25 12:30:00,75.1,63.8,29.91,SW,217,4.0,4.0,68,0.00,,,0.00,Wunderground v.1.15,2013-08-25 19:30:00,
2013-08-25 12:35:00,75.5,63.8,29.91,SSW,207,4.0,4.0,67,0.00,,,0.00,Wunderground v.1.15,2013-08-25 19:35:00,
2013-08-25 12:45:00,76.1,63.5,29.90,South,191,6.0,10.0,65,0.00,,,0.00,Wunderground v.1.15,2013-08-25 19:45:00,
2013-08-25 12:50:00,75.7,63.1,29.90,South,179,7.0,7.0,65,0.00,,,0.00,Wunderground v.1.15,2013-08-25 19:50:00,
2013-08-25 13:00:00,76.3,63.7,29.90,SSW,210,4.0,7.0,65,0.00,,,0.00,Wunderground v.1.15,2013-08-25 20:00:00,
2013-08-25 13:10:00,77.5,63.9,29.90,NW,307,4.0,6.0,63,0.00,,,0.00,Wunderground v.1.15,2013-08-25 20:10:00,
2013-08-25 13:20:00,78.0,63.9,29.90,SSW,198,5.0,7.0,62,0.00,,,0.00,Wunderground v.1.15,2013-08-25 20:20:00,
2013-08-25 13:30:00,78.3,64.2,29.90,WSW,243,5.0,9.0,62,0.00,,,0.00,Wunderground v.1.15,2013-08-25 20:30:00,
2013-08-25 13:40:00,76.9,63.8,29.90,SW,224,6.0,6.0,64,0.00,,,0.00,Wunderground v.1.15,2013-08-25 20:40:00,
2013-08-25 13:50:00,76.2,63.6,29.90,SW,227,7.0,7.0,65,0.00,,,0.00,Wunderground v.1.15,2013-08-25 20:50:00,
2013-08-25 14:00:00,76.7,64.0,29.89,South,183,6.0,6.0,65,0.00,,,0.00,Wunderground v.1.15,2013-08-25 21:00:00,
2013-08-25 14:05:00,77.2,64.1,29.89,West,267,6.0,6.0,64,0.00,,,0.00,Wunderground v.1.15,2013-08-25 21:05:00,
2013-08-25 14:10:00,77.6,64.0,29.89,SSW,207,6.0,6.0,63,0.00,,,0.00,Wunderground v.1.15,2013-08-25 21:10:00,
2013-08-25 14:15:00,77.9,64.3,29.89,SSE,166,6.0,6.0,63,0.00,,,0.00,Wunderground v.1.15,2013-08-25 21:15:00,
2013-08-25 14:25:00,76.6,64.0,29.89,West,270,8.0,8.0,65,0.00,,,0.00,Wunderground v.1.15,2013-08-25 21:25:00,
2013-08-25 14:35:00,76.6,64.0,29.89,SSW,200,9.0,12.0,65,0.00,,,0.00,Wunderground v.1.15,2013-08-25 21:35:00,
2013-08-25 14:40:00,76.2,64.0,29.89,SSW,205,10.0,10.0,66,0.00,,,0.00,Wunderground v.1.15,2013-08-25 21:40:00,
2013-08-25 14:45:00,75.8,63.6,29.89,SW,226,10.0,11.0,66,0.00,,,0.00,Wunderground v.1.15,2013-08-25 21:45:00,
2013-08-25 14:55:00,76.3,63.7,29.89,WSW,257,8.0,8.0,65,0.00,,,0.00,Wunderground v.1.15,2013-08-25 21:55:00,
2013-08-25 15:05:00,76.7,64.0,29.89,SW,235,6.0,8.0,65,0.00,,,0.00,Wunderground v.1.15,2013-08-25 22:05:00,
2013-08-25 15:15:00,76.3,63.7,29.89,NW,304,7.0,8.0,65,0.00,,,0.00,Wunderground v.1.15,2013-08-25 22:15:00,
2013-08-25 15:20:00,76.7,63.6,29.89,WSW,240,6.0,10.0,64,0.00,,,0.00,Wunderground v.1.15,2013-08-25 22:20:00,
2013-08-25 15:30:00,76.0,63.4,29.89,WNW,299,7.0,7.0,65,0.00,,,0.00,Wunderground v.1.15,2013-08-25 22:30:00,
2013-08-25 15:40:00,75.3,63.2,29.88,NW,307,8.0,9.0,66,0.00,,,0.00,Wunderground v.1.15,2013-08-25 22:40:00,
2013-08-25 15:45:00,75.3,63.2,29.88,NW,307,7.0,9.0,66,0.00,,,0.00,Wunderground v.1.15,2013-08-25 22:45:00,
2013-08-25 15:50:00,75.2,63.1,29.88,WNW,289,7.0,7.0,66,0.00,,,0.00,Wunderground v.1.15,2013-08-25 22:50:00,
2013-08-25 16:00:00,74.7,63.0,29.88,NW,315,6.0,6.0,67,0.00,,,0.00,Wunderground v.1.15,2013-08-25 23:00:00,
2013-08-25 16:05:00,75.0,62.9,29.87,NW,313,6.0,6.0,66,0.00,,,0.00,Wunderground v.1.15,2013-08-25 23:05:00,
2013-08-25 16:10:00,75.2,63.1,29.86,WNW,288,6.0,6.0,66,0.00,,,0.00,Wunderground v.1.15,2013-08-25 23:10:00,
2013-08-25 16:15:00,74.4,62.7,29.88,WSW,240,5.0,7.0,67,0.00,,,0.00,Wunderground v.1.15,2013-08-25 23:15:00,
2013-08-25 16:20:00,74.3,63.1,29.88,NW,310,6.0,6.0,68,0.00,,,0.00,Wunderground v.1.15,2013-08-25 23:20:00,
2013-08-25 16:25:00,74.8,62.7,29.88,WNW,286,6.0,6.0,66,0.00,,,0.00,Wunderground v.1.15,2013-08-25 23:25:00,
2013-08-25 16:35:00,73.9,62.2,29.88,West,262,7.0,8.0,67,0.00,,,0.00,Wunderground v.1.15,2013-08-25 23:35:00,
2013-08-25 16:40:00,73.9,62.7,29.88,West,275,7.0,7.0,68,0.00,,,0.00,Wunderground v.1.15,2013-08-25 23:40:00,
2013-08-25 16:45:00,74.2,62.5,29.88,WSW,256,6.0,9.0,67,0.00,,,0.00,Wunderground v.1.15,2013-08-25 23:45:00,
2013-08-25 16:50:00,73.3,62.5,29.88,West,268,7.0,7.0,69,0.00,,,0.00,Wunderground v.1.15,2013-08-25 23:50:00,
2013-08-25 16:55:00,73.0,62.2,29.88,South,191,7.0,7.0,69,0.00,,,0.00,Wunderground v.1.15,2013-08-25 23:55:00,
2013-08-25 17:00:00,72.7,62.3,29.88,WNW,295,7.0,11.0,70,0.00,,,0.00,Wunderground v.1.15,2013-08-26 00:00:00,
2013-08-25 17:10:00,72.2,61.9,29.88,SSW,203,7.0,11.0,70,0.00,,,0.00,Wunderground v.1.15,2013-08-26 00:10:00,
2013-08-25 17:20:00,72.4,62.1,29.88,West,259,7.0,11.0,70,0.00,,,0.00,Wunderground v.1.15,2013-08-26 00:20:00,
2013-08-25 17:30:00,72.0,62.1,29.88,NNW,332,6.0,6.0,71,0.00,,,0.00,Wunderground v.1.15,2013-08-26 00:30:00,
2013-08-25 17:35:00,72.0,61.7,29.87,SW,227,5.0,11.0,70,0.00,,,0.00,Wunderground v.1.15,2013-08-26 00:35:00,
2013-08-25 17:45:00,71.5,62.0,29.88,West,267,5.0,6.0,72,0.00,,,0.00,Wunderground v.1.15,2013-08-26 00:45:00,
2013-08-25 17:55:00,71.0,61.5,29.88,SW,236,6.0,11.0,72,0.00,,,0.00,Wunderground v.1.15,2013-08-26 00:55:00,
2013-08-25 18:05:00,69.8,61.1,29.87,WSW,255,6.0,11.0,74,0.00,,,0.00,Wunderground v.1.15,2013-08-26 01:05:00,
2013-08-25 18:15:00,69.9,61.2,29.87,WNW,290,6.0,11.0,74,0.00,,,0.00,Wunderground v.1.15,2013-08-26 01:15:00,
2013-08-25 18:25:00,70.0,61.3,29.87,NW,319,5.0,11.0,74,0.00,,,0.00,Wunderground v.1.15,2013-08-26 01:25:00,
2013-08-25 18:35:00,69.5,60.8,29.87,WNW,297,5.0,11.0,74,0.00,,,0.00,Wunderground v.1.15,2013-08-26 01:35:00,
2013-08-25 18:40:00,69.3,60.7,29.87,NW,304,5.0,5.0,74,0.00,,,0.00,Wunderground v.1.15,2013-08-26 01:40:00,
2013-08-25 18:50:00,69.3,60.7,29.87,NW,307,4.0,11.0,74,0.00,,,0.00,Wunderground v.1.15,2013-08-26 01:50:00,
2013-08-25 19:00:00,69.0,60.4,29.87,WNW,302,5.0,5.0,74,0.00,,,0.00,Wunderground v.1.15,2013-08-26 02:00:00,
2013-08-25 19:05:00,68.5,60.3,29.88,SW,219,4.0,5.0,75,0.00,,,0.00,Wunderground v.1.15,2013-08-26 02:05:00,
2013-08-25 19:10:00,68.0,59.8,29.88,West,278,3.0,4.0,75,0.00,,,0.00,Wunderground v.1.15,2013-08-26 02:10:00,
2013-08-25 19:20:00,66.3,59.2,29.88,WSW,257,6.0,6.0,78,0.00,,,0.00,Wunderground v.1.15,2013-08-26 02:20:00,
2013-08-25 19:30:00,65.2,58.9,29.88,West,267,5.0,5.0,80,0.00,,,0.00,Wunderground v.1.15,2013-08-26 02:30:00,
2013-08-25 19:40:00,64.5,58.5,29.89,NW,314,5.0,6.0,81,0.00,,,0.00,Wunderground v.1.15,2013-08-26 02:40:00,
2013-08-25 19:45:00,64.2,58.2,29.89,NNW,333,4.0,6.0,81,0.00,,,0.00,Wunderground v.1.15,2013-08-26 02:45:00,
2013-08-25 19:55:00,63.5,58.2,29.89,WSW,255,5.0,6.0,83,0.00,,,0.00,Wunderground v.1.15,2013-08-26 02:55:00,
2013-08-25 20:05:00,63.1,58.2,29.89,SW,229,4.0,9.0,84,0.00,,,0.00,Wunderground v.1.15,2013-08-26 03:05:00,
2013-08-25 20:15:00,62.7,58.5,29.90,SW,223,5.0,9.0,86,0.00,,,0.00,Wunderground v.1.15,2013-08-26 03:15:00,
2013-08-25 20:25:00,62.5,58.3,29.90,WSW,252,3.0,9.0,86,0.00,,,0.00,Wunderground v.1.15,2013-08-26 03:25:00,
2013-08-25 20:30:00,62.5,58.6,29.90,NW,317,3.0,9.0,87,0.00,,,0.00,Wunderground v.1.15,2013-08-26 03:30:00,
2013-08-25 20:35:00,62.6,58.7,29.90,WNW,292,4.0,9.0,87,0.00,,,0.00,Wunderground v.1.15,2013-08-26 03:35:00,
2013-08-25 20:40:00,62.5,58.6,29.90,SW,216,4.0,4.0,87,0.00,,,0.00,Wunderground v.1.15,2013-08-26 03:40:00,
2013-08-25 20:50:00,62.5,58.6,29.91,WSW,248,3.0,3.0,87,0.00,,,0.00,Wunderground v.1.15,2013-08-26 03:50:00,
2013-08-25 21:00:00,62.6,58.7,29.91,West,274,3.0,9.0,87,0.00,,,0.00,Wunderground v.1.15,2013-08-26 04:00:00,
2013-08-25 21:05:00,62.5,58.9,29.91,WNW,294,5.0,9.0,88,0.00,,,0.00,Wunderground v.1.15,2013-08-26 04:05:00,
2013-08-25 21:10:00,62.5,58.6,29.91,WSW,252,4.0,9.0,87,0.00,,,0.00,Wunderground v.1.15,2013-08-26 04:10:00,
2013-08-25 21:20:00,62.4,58.5,29.91,WSW,242,3.0,3.0,87,0.00,,,0.00,Wunderground v.1.15,2013-08-26 04:20:00,
2013-08-25 21:25:00,62.3,58.7,29.91,WSW,250,3.0,9.0,88,0.00,,,0.00,Wunderground v.1.15,2013-08-26 04:25:00,
2013-08-25 21:30:00,62.3,58.7,29.91,WSW,239,2.0,9.0,88,0.00,,,0.00,Wunderground v.1.15,2013-08-26 04:30:00,
2013-08-25 21:35:00,62.3,58.7,29.91,SW,227,2.0,9.0,88,0.00,,,0.00,Wunderground v.1.15,2013-08-26 04:35:00,
2013-08-25 21:40:00,62.2,58.6,29.92,SW,218,2.0,9.0,88,0.00,,,0.00,Wunderground v.1.15,2013-08-26 04:40:00,
2013-08-25 21:45:00,62.2,58.6,29.92,SW,225,3.0,9.0,88,0.00,,,0.00,Wunderground v.1.15,2013-08-26 04:45:00,
2013-08-25 21:55:00,62.1,58.5,29.92,West,263,3.0,9.0,88,0.00,,,0.00,Wunderground v.1.15,2013-08-26 04:55:00,
2013-08-25 22:05:00,61.9,58.3,29.92,West,259,3.0,9.0,88,0.00,,,0.00,Wunderground v.1.15,2013-08-26 05:05:00,
2013-08-25 22:10:00,61.9,58.6,29.92,WSW,245,2.0,4.0,89,0.00,,,0.00,Wunderground v.1.15,2013-08-26 05:10:00,
2013-08-25 22:15:00,61.9,58.6,29.92,WSW,241,2.0,4.0,89,0.00,,,0.00,Wunderground v.1.15,2013-08-26 05:15:00,
2013-08-25 22:20:00,61.9,58.6,29.92,WSW,240,2.0,2.0,89,0.00,,,0.00,Wunderground v.1.15,2013-08-26 05:20:00,
2013-08-25 22:30:00,61.8,58.5,29.92,West,270,2.0,-999.0,89,0.00,,,0.00,Wunderground v.1.15,2013-08-26 05:30:00,
2013-08-25 22:35:00,61.7,58.4,29.92,SW,225,2.0,-999.0,89,0.00,,,0.00,Wunderground v.1.15,2013-08-26 05:35:00,
2013-08-25 22:40:00,61.7,58.4,29.92,SW,225,3.0,-999.0,89,0.00,,,0.00,Wunderground v.1.15,2013-08-26 05:40:00,
2013-08-25 22:45:00,61.7,58.7,29.92,WSW,248,2.0,-999.0,90,0.00,,,0.00,Wunderground v.1.15,2013-08-26 05:45:00,
2013-08-25 22:50:00,61.6,58.6,29.92,West,270,2.0,-999.0,90,0.00,,,0.00,Wunderground v.1.15,2013-08-26 05:50:00,
2013-08-25 22:55:00,61.5,58.5,29.92,West,270,2.0,-999.0,90,0.00,,,0.00,Wunderground v.1.15,2013-08-26 05:55:00,
2013-08-25 23:00:00,61.4,58.4,29.92,West,270,2.0,-999.0,90,0.00,,,0.00,Wunderground v.1.15,2013-08-26 06:00:00,
2013-08-25 23:05:00,61.4,58.4,29.92,WSW,248,2.0,-999.0,90,0.00,,,0.00,Wunderground v.1.15,2013-08-26 06:05:00,
2013-08-25 23:10:00,61.4,58.4,29.92,West,270,2.0,-999.0,90,0.00,,,0.00,Wunderground v.1.15,2013-08-26 06:10:00,
2013-08-25 23:15:00,61.4,58.7,29.92,SW,225,4.0,-999.0,91,0.00,,,0.00,Wunderground v.1.15,2013-08-26 06:15:00,
2013-08-25 23:20:00,61.4,58.7,29.92,WSW,248,3.0,-999.0,91,0.00,,,0.00,Wunderground v.1.15,2013-08-26 06:20:00,
2013-08-25 23:25:00,61.4,58.7,29.92,WSW,248,4.0,-999.0,91,0.00,,,0.00,Wunderground v.1.15,2013-08-26 06:25:00,
2013-08-25 23:30:00,61.3,58.7,29.92,WSW,248,4.0,-999.0,91,0.00,,,0.00,Wunderground v.1.15,2013-08-26 06:30:00,
2013-08-25 23:35:00,61.3,58.7,29.92,SW,225,2.0,-999.0,91,0.00,,,0.00,Wunderground v.1.15,2013-08-26 06:35:00,
2013-08-25 23:40:00,61.3,58.7,29.92,WSW,248,3.0,-999.0,91,0.00,,,0.00,Wunderground v.1.15,2013-08-26 06:40:00,
2013-08-25 23:45:00,61.2,58.6,29.92,West,270,3.0,-999.0,91,0.00,,,0.00,Wunderground v.1.15,2013-08-26 06:45:00,
2013-08-25 23:50:00,61.1,58.5,29.92,WSW,248,3.0,-999.0,91,0.00,,,0.00,Wunderground v.1.15,2013-08-26 06:50:00,
2013-08-25 23:55:00,61.1,58.5,29.92,WSW,248,4.0,-999.0,91,0.00,,,0.00,Wunderground v.1.15,2013-08-26 06:55:00,